Time,TemperatureF,DewpointF,PressureIn,WindDirection,WindDirectionDegrees,WindSpeedMPH,WindSpeedGustMPH,Humidity,HourlyPrecipIn,Conditions,Clouds,dailyrainin,SoftwareType,DateUTC
2013-12-05 00:01:00,36.8,35.0,30.19,SE,135,2.8,5.0,93,0.00,,,0.00,Rainwise IP-100,2013-12-05 05:01:00,
2013-12-05 00:02:00,36.9,35.0,30.19,SE,135,3.0,5.0,93,0.00,,,0.00,Rainwise IP-100,2013-12-05 05:02:00,
2013-12-05 00:07:00,36.9,35.0,30.19,SE,135,4.0,5.0,93,0.00,,,0.00,Rainwise IP-100,2013-12-05 05:07:00,
2013-12-05 00:12:00,36.8,36.0,30.19,SE,135,4.0,5.0,94,0.00,,,0.00,Rainwise IP-100,2013-12-05 05:12:00,
2013-12-05 00:17:00,36.7,36.0,30.18,ESE,112,3.7,5.0,94,0.00,,,0.00,Rainwise IP-100,2013-12-05 05:17:00,
2013-12-05 00:22:00,36.6,36.0,30.18,SSE,157,3.5,5.0,95,0.00,,,0.00,Rainwise IP-100,2013-12-05 05:22:00,
2013-12-05 00:27:00,36.5,36.0,30.18,SE,135,4.9,6.0,95,0.00,,,0.00,Rainwise IP-100,2013-12-05 05:27:00,
2013-12-05 00:32:00,36.3,35.0,30.18,SE,135,3.0,5.0,95,0.00,,,0.00,Rainwise IP-100,2013-12-05 05:32:00,
2013-12-05 00:37:00,36.2,35.0,30.18,SE,135,3.5,6.0,95,0.00,,,0.00,Rainwise IP-100,2013-12-05 05:37:00,
2013-12-05 00:42:00,36.2,35.0,30.18,SE,135,3.3,4.0,96,0.00,,,0.00,Rainwise IP-100,2013-12-05 05:42:00,
2013-12-05 00:47:00,36.3,35.0,30.18,SE,135,2.8,5.0,96,0.00,,,0.00,Rainwise IP-100,2013-12-05 05:47:00,
2013-12-05 00:52:00,36.5,36.0,30.18,SE,135,5.1,5.1,96,0.00,,,0.00,Rainwise IP-100,2013-12-05 05:52:00,
2013-12-05 00:57:00,36.7,36.0,30.18,ESE,112,4.7,6.0,96,0.00,,,0.00,Rainwise IP-100,2013-12-05 05:57:00,
2013-12-05 01:02:00,36.8,36.0,30.18,SSE,157,2.3,5.0,96,0.00,,,0.00,Rainwise IP-100,2013-12-05 06:02:00,
2013-12-05 01:07:00,36.7,36.0,30.18,ESE,112,3.3,4.0,97,0.00,,,0.00,Rainwise IP-100,2013-12-05 06:07:00,
2013-12-05 01:12:00,36.7,36.0,30.18,ESE,112,3.0,4.0,97,0.00,,,0.00,Rainwise IP-100,2013-12-05 06:12:00,
2013-12-05 01:17:00,36.9,36.0,30.18,ESE,112,2.3,5.0,97,0.00,,,0.00,Rainwise IP-100,2013-12-05 06:17:00,
2013-12-05 01:22:00,37.0,36.0,30.18,SE,135,1.6,5.0,97,0.00,,,0.00,Rainwise IP-100,2013-12-05 06:22:00,
2013-12-05 01:27:00,37.0,36.0,30.19,ESE,112,2.1,4.0,97,0.00,,,0.00,Rainwise IP-100,2013-12-05 06:27:00,
2013-12-05 01:32:00,37.2,36.0,30.19,SE,135,1.9,4.0,97,0.00,,,0.00,Rainwise IP-100,2013-12-05 06:32:00,
2013-12-05 01:37:00,37.5,37.0,30.19,ESE,112,2.3,4.0,97,0.00,,,0.00,Rainwise IP-100,2013-12-05 06:37:00,
2013-12-05 01:42:00,37.6,37.0,30.20,East,90,2.8,4.0,97,0.00,,,0.00,Rainwise IP-100,2013-12-05 06:42:00,
2013-12-05 01:47:00,37.9,37.0,30.20,SE,135,1.6,4.0,97,0.00,,,0.00,Rainwise IP-100,2013-12-05 06:47:00,
2013-12-05 01:52:00,38.1,37.0,30.20,East,90,3.5,4.0,97,0.00,,,0.00,Rainwise IP-100,2013-12-05 06:52:00,
2013-12-05 01:57:00,38.1,37.0,30.19,ESE,112,3.7,6.0,97,0.00,,,0.00,Rainwise IP-100,2013-12-05 06:57:00,
2013-12-05 02:02:00,38.0,37.0,30.19,ESE,112,6.3,7.0,97,0.00,,,0.00,Rainwise IP-100,2013-12-05 07:02:00,
2013-12-05 02:07:00,38.0,37.0,30.19,ENE,67,5.6,7.0,97,0.00,,,0.00,Rainwise IP-100,2013-12-05 07:07:00,
2013-12-05 02:12:00,38.1,37.0,30.19,East,90,4.2,9.0,97,0.00,,,0.00,Rainwise IP-100,2013-12-05 07:12:00,
2013-12-05 02:17:00,38.1,37.0,30.19,East,90,5.1,7.0,96,0.00,,,0.00,Rainwise IP-100,2013-12-05 07:17:00,
2013-12-05 02:22:00,38.0,37.0,30.19,SE,135,4.2,7.0,96,0.00,,,0.00,Rainwise IP-100,2013-12-05 07:22:00,
2013-12-05 02:27:00,37.8,37.0,30.20,SSE,157,3.3,7.0,95,0.00,,,0.00,Rainwise IP-100,2013-12-05 07:27:00,
2013-12-05 02:32:00,37.6,37.0,30.19,SSE,157,3.7,8.0,95,0.00,,,0.00,Rainwise IP-100,2013-12-05 07:32:00,
2013-12-05 02:37:00,37.6,37.0,30.20,SE,135,4.9,8.0,95,0.00,,,0.00,Rainwise IP-100,2013-12-05 07:37:00,
2013-12-05 02:42:00,37.7,37.0,30.20,ESE,112,2.6,8.0,95,0.00,,,0.00,Rainwise IP-100,2013-12-05 07:42:00,
2013-12-05 02:47:00,37.8,37.0,30.18,ENE,67,2.6,8.0,95,0.00,,,0.00,Rainwise IP-100,2013-12-05 07:47:00,
2013-12-05 02:52:00,37.6,37.0,30.18,SE,135,3.3,9.0,95,0.00,,,0.00,Rainwise IP-100,2013-12-05 07:52:00,
2013-12-05 02:57:00,37.7,37.0,30.18,SSE,157,4.9,9.0,95,0.00,,,0.00,Rainwise IP-100,2013-12-05 07:57:00,
2013-12-05 03:02:00,37.6,37.0,30.18,ESE,112,6.1,7.0,95,0.00,,,0.00,Rainwise IP-100,2013-12-05 08:02:00,
2013-12-05 03:07:00,37.3,36.0,30.19,ESE,112,3.7,7.0,95,0.00,,,0.00,Rainwise IP-100,2013-12-05 08:07:00,
2013-12-05 03:12:00,37.1,36.0,30.18,SE,135,1.9,8.0,95,0.00,,,0.00,Rainwise IP-100,2013-12-05 08:12:00,
2013-12-05 03:17:00,37.1,36.0,30.18,SSE,157,2.8,9.0,95,0.00,,,0.00,Rainwise IP-100,2013-12-05 08:17:00,
2013-12-05 03:22:00,37.2,36.0,30.18,ESE,112,4.0,9.0,95,0.00,,,0.00,Rainwise IP-100,2013-12-05 08:22:00,
2013-12-05 03:27:00,37.4,36.0,30.18,ESE,112,2.1,12.0,95,0.00,,,0.00,Rainwise IP-100,2013-12-05 08:27:00,
2013-12-05 03:32:00,37.6,37.0,30.16,SSE,157,5.6,13.0,96,0.00,,,0.00,Rainwise IP-100,2013-12-05 08:32:00,
2013-12-05 03:37:00,37.8,37.0,30.17,SE,135,2.8,12.0,96,0.00,,,0.00,Rainwise IP-100,2013-12-05 08:37:00,
2013-12-05 03:42:00,37.9,37.0,30.18,ESE,112,10.5,12.0,96,0.00,,,0.00,Rainwise IP-100,2013-12-05 08:42:00,
2013-12-05 03:47:00,37.8,37.0,30.18,ESE,112,8.4,10.0,96,0.00,,,0.00,Rainwise IP-100,2013-12-05 08:47:00,
2013-12-05 03:52:00,37.7,37.0,30.19,SE,135,4.7,11.0,96,0.00,,,0.00,Rainwise IP-100,2013-12-05 08:52:00,
2013-12-05 03:57:00,38.0,37.0,30.18,ESE,112,3.7,12.0,96,0.00,,,0.00,Rainwise IP-100,2013-12-05 08:57:00,
2013-12-05 04:02:00,38.2,37.0,30.19,SE,135,5.1,10.0,96,0.00,,,0.00,Rainwise IP-100,2013-12-05 09:02:00,
2013-12-05 04:07:00,38.3,37.0,30.19,SE,135,4.4,10.0,96,0.00,,,0.00,Rainwise IP-100,2013-12-05 09:07:00,
2013-12-05 04:12:00,38.3,37.0,30.19,SE,135,6.5,8.0,96,0.00,,,0.00,Rainwise IP-100,2013-12-05 09:12:00,
2013-12-05 04:17:00,38.4,37.0,30.19,SE,135,8.2,10.0,96,0.00,,,0.00,Rainwise IP-100,2013-12-05 09:17:00,
2013-12-05 04:22:00,38.5,38.0,30.19,ESE,112,9.6,11.0,96,0.00,,,0.00,Rainwise IP-100,2013-12-05 09:22:00,
2013-12-05 04:27:00,38.7,38.0,30.19,ESE,112,5.4,9.0,96,0.00,,,0.00,Rainwise IP-100,2013-12-05 09:27:00,
2013-12-05 04:32:00,38.8,38.0,30.19,East,90,5.1,10.0,96,0.00,,,0.00,Rainwise IP-100,2013-12-05 09:32:00,
2013-12-05 04:37:00,38.9,38.0,30.18,ESE,112,2.8,13.0,96,0.00,,,0.00,Rainwise IP-100,2013-12-05 09:37:00,
2013-12-05 04:42:00,39.0,38.0,30.18,East,90,4.4,10.0,96,0.00,,,0.00,Rainwise IP-100,2013-12-05 09:42:00,
2013-12-05 04:47:00,39.0,38.0,30.18,ESE,112,7.0,9.0,96,0.00,,,0.00,Rainwise IP-100,2013-12-05 09:47:00,
2013-12-05 04:52:00,39.1,38.0,30.17,ESE,112,8.9,13.0,96,0.00,,,0.00,Rainwise IP-100,2013-12-05 09:52:00,
2013-12-05 04:57:00,39.1,38.0,30.17,SSE,157,3.5,14.0,96,0.00,,,0.00,Rainwise IP-100,2013-12-05 09:57:00,
2013-12-05 05:02:00,39.1,38.0,30.18,ESE,112,7.2,11.0,95,0.00,,,0.00,Rainwise IP-100,2013-12-05 10:02:00,
2013-12-05 05:07:00,39.2,38.0,30.18,SE,135,6.3,12.0,95,0.00,,,0.00,Rainwise IP-100,2013-12-05 10:07:00,
2013-12-05 05:12:00,39.5,39.0,30.18,East,90,8.2,12.0,94,0.00,,,0.00,Rainwise IP-100,2013-12-05 10:12:00,
2013-12-05 05:17:00,39.8,39.0,30.18,ESE,112,4.0,10.0,94,0.00,,,0.00,Rainwise IP-100,2013-12-05 10:17:00,
2013-12-05 05:22:00,40.1,38.0,30.18,ESE,112,7.9,9.0,92,0.00,,,0.00,Rainwise IP-100,2013-12-05 10:22:00,
2013-12-05 05:27:00,40.2,38.0,30.18,SE,135,5.1,10.0,92,0.00,,,0.00,Rainwise IP-100,2013-12-05 10:27:00,
2013-12-05 05:32:00,40.2,38.0,30.18,ENE,67,4.4,8.0,91,0.00,,,0.00,Rainwise IP-100,2013-12-05 10:32:00,
2013-12-05 05:37:00,40.3,38.0,30.19,SE,135,4.4,10.0,91,0.00,,,0.00,Rainwise IP-100,2013-12-05 10:37:00,
2013-12-05 05:42:00,40.3,38.0,30.19,SE,135,6.3,9.0,91,0.00,,,0.00,Rainwise IP-100,2013-12-05 10:42:00,
2013-12-05 05:47:00,40.4,38.0,30.19,SE,135,4.0,8.0,91,0.00,,,0.00,Rainwise IP-100,2013-12-05 10:47:00,
2013-12-05 05:52:00,40.4,38.0,30.19,East,90,5.4,9.0,90,0.00,,,0.00,Rainwise IP-100,2013-12-05 10:52:00,
2013-12-05 05:57:00,40.6,38.0,30.18,ESE,112,7.2,9.0,90,0.00,,,0.00,Rainwise IP-100,2013-12-05 10:57:00,
2013-12-05 06:02:00,40.8,38.0,30.19,ESE,112,7.0,8.0,89,0.00,,,0.00,Rainwise IP-100,2013-12-05 11:02:00,
2013-12-05 06:07:00,40.9,38.0,30.18,East,90,5.6,11.0,89,0.00,,,0.00,Rainwise IP-100,2013-12-05 11:07:00,
2013-12-05 06:12:00,41.0,38.0,30.19,ESE,112,4.9,10.0,89,0.00,,,0.00,Rainwise IP-100,2013-12-05 11:12:00,
2013-12-05 06:17:00,41.0,38.0,30.19,East,90,6.5,8.0,88,0.00,,,0.00,Rainwise IP-100,2013-12-05 11:17:00,
2013-12-05 06:22:00,41.0,38.0,30.18,ESE,112,9.1,11.0,88,0.00,,,0.00,Rainwise IP-100,2013-12-05 11:22:00,
2013-12-05 06:27:00,41.0,38.0,30.18,East,90,4.4,11.0,88,0.00,,,0.00,Rainwise IP-100,2013-12-05 11:27:00,
2013-12-05 06:32:00,41.0,38.0,30.18,SE,135,2.3,13.0,88,0.00,,,0.00,Rainwise IP-100,2013-12-05 11:32:00,
2013-12-05 06:37:00,41.1,38.0,30.18,ENE,67,5.1,12.0,88,0.00,,,0.00,Rainwise IP-100,2013-12-05 11:37:00,
2013-12-05 06:42:00,41.1,38.0,30.18,ESE,112,5.1,13.0,88,0.00,,,0.00,Rainwise IP-100,2013-12-05 11:42:00,
2013-12-05 06:47:00,41.1,38.0,30.18,ESE,112,4.0,12.0,88,0.00,,,0.00,Rainwise IP-100,2013-12-05 11:47:00,
2013-12-05 06:52:00,41.2,38.0,30.17,ESE,112,3.7,11.0,88,0.00,,,0.00,Rainwise IP-100,2013-12-05 11:52:00,
2013-12-05 06:57:00,41.2,38.0,30.17,ESE,112,9.6,11.0,89,0.00,,,0.00,Rainwise IP-100,2013-12-05 11:57:00,
2013-12-05 07:02:00,41.2,38.0,30.17,ESE,112,4.4,11.0,89,0.00,,,0.00,Rainwise IP-100,2013-12-05 12:02:00,
2013-12-05 07:07:00,41.3,38.0,30.17,ESE,112,6.3,12.0,89,0.00,,,0.00,Rainwise IP-100,2013-12-05 12:07:00,
2013-12-05 07:12:00,41.5,39.0,30.17,SE,135,4.4,11.0,89,0.00,,,0.00,Rainwise IP-100,2013-12-05 12:12:00,
2013-12-05 07:17:00,41.6,39.0,30.16,ESE,112,6.1,12.0,89,0.00,,,0.00,Rainwise IP-100,2013-12-05 12:17:00,
2013-12-05 07:22:00,41.7,39.0,30.17,East,90,5.1,14.0,89,0.00,,,0.00,Rainwise IP-100,2013-12-05 12:22:00,
2013-12-05 07:27:00,41.8,39.0,30.17,SE,135,3.7,13.0,90,0.00,,,0.00,Rainwise IP-100,2013-12-05 12:27:00,
2013-12-05 07:32:00,42.0,39.0,30.17,East,90,7.0,14.0,90,0.00,,,0.00,Rainwise IP-100,2013-12-05 12:32:00,
2013-12-05 07:37:00,42.1,39.0,30.17,ESE,112,5.4,12.0,90,0.00,,,0.00,Rainwise IP-100,2013-12-05 12:37:00,
2013-12-05 07:42:00,42.1,39.0,30.17,ESE,112,13.1,13.1,90,0.00,,,0.00,Rainwise IP-100,2013-12-05 12:42:00,
2013-12-05 07:47:00,42.3,39.0,30.17,ESE,112,10.3,15.0,90,0.00,,,0.00,Rainwise IP-100,2013-12-05 12:47:00,
2013-12-05 07:52:00,42.4,39.0,30.17,ESE,112,5.4,12.0,90,0.00,,,0.00,Rainwise IP-100,2013-12-05 12:52:00,
2013-12-05 07:57:00,42.5,40.0,30.17,East,90,9.6,14.0,90,0.00,,,0.00,Rainwise IP-100,2013-12-05 12:57:00,
2013-12-05 08:02:00,42.6,40.0,30.17,SSE,157,3.5,15.0,90,0.00,,,0.00,Rainwise IP-100,2013-12-05 13:02:00,
2013-12-05 08:07:00,42.7,40.0,30.18,East,90,3.0,15.0,90,0.00,,,0.00,Rainwise IP-100,2013-12-05 13:07:00,
2013-12-05 08:12:00,42.8,40.0,30.18,ESE,112,5.1,14.0,90,0.00,,,0.00,Rainwise IP-100,2013-12-05 13:12:00,
2013-12-05 08:17:00,42.9,40.0,30.17,ESE,112,7.5,13.0,90,0.00,,,0.00,Rainwise IP-100,2013-12-05 13:17:00,
2013-12-05 08:22:00,43.0,40.0,30.17,East,90,4.2,15.0,90,0.00,,,0.00,Rainwise IP-100,2013-12-05 13:22:00,
2013-12-05 08:27:00,43.1,40.0,30.18,SSE,157,2.1,16.0,90,0.00,,,0.00,Rainwise IP-100,2013-12-05 13:27:00,
2013-12-05 08:32:00,43.2,40.0,30.17,ESE,112,7.5,13.0,91,0.00,,,0.00,Rainwise IP-100,2013-12-05 13:32:00,
2013-12-05 08:37:00,43.3,40.0,30.18,East,90,3.7,12.0,91,0.00,,,0.00,Rainwise IP-100,2013-12-05 13:37:00,
2013-12-05 08:42:00,43.4,40.0,30.17,ESE,112,9.1,13.0,91,0.00,,,0.00,Rainwise IP-100,2013-12-05 13:42:00,
2013-12-05 08:47:00,43.4,40.0,30.17,SSE,157,7.2,14.0,91,0.00,,,0.00,Rainwise IP-100,2013-12-05 13:47:00,
2013-12-05 08:52:00,43.5,41.0,30.17,East,90,7.5,14.0,91,0.00,,,0.00,Rainwise IP-100,2013-12-05 13:52:00,
2013-12-05 08:57:00,43.6,41.0,30.16,East,90,10.5,17.0,91,0.00,,,0.00,Rainwise IP-100,2013-12-05 13:57:00,
2013-12-05 09:02:00,43.7,41.0,30.16,East,90,3.7,18.0,91,0.00,,,0.00,Rainwise IP-100,2013-12-05 14:02:00,
2013-12-05 09:07:00,43.8,41.0,30.15,East,90,6.1,15.0,91,0.00,,,0.00,Rainwise IP-100,2013-12-05 14:07:00,
2013-12-05 09:12:00,43.9,42.0,30.16,ESE,112,4.0,16.0,92,0.00,,,0.00,Rainwise IP-100,2013-12-05 14:12:00,
2013-12-05 09:17:00,44.0,42.0,30.16,SE,135,6.8,13.0,92,0.00,,,0.00,Rainwise IP-100,2013-12-05 14:17:00,
2013-12-05 09:22:00,44.3,42.0,30.16,ESE,112,11.2,14.0,92,0.00,,,0.00,Rainwise IP-100,2013-12-05 14:22:00,
2013-12-05 09:27:00,44.5,42.0,30.16,ENE,67,12.8,19.0,91,0.00,,,0.00,Rainwise IP-100,2013-12-05 14:27:00,
2013-12-05 09:32:00,44.7,42.0,30.15,SSE,157,10.3,14.0,91,0.00,,,0.00,Rainwise IP-100,2013-12-05 14:32:00,
2013-12-05 09:37:00,45.0,42.0,30.15,SE,135,12.1,18.0,91,0.00,,,0.00,Rainwise IP-100,2013-12-05 14:37:00,
2013-12-05 09:42:00,45.2,42.0,30.15,SE,135,4.9,17.0,90,0.00,,,0.00,Rainwise IP-100,2013-12-05 14:42:00,
2013-12-05 09:47:00,45.3,42.0,30.15,ESE,112,14.2,15.0,90,0.00,,,0.00,Rainwise IP-100,2013-12-05 14:47:00,
2013-12-05 09:52:00,45.5,43.0,30.15,ENE,67,2.8,19.0,90,0.00,,,0.00,Rainwise IP-100,2013-12-05 14:52:00,
2013-12-05 09:57:00,45.6,43.0,30.15,ESE,112,5.4,15.0,89,0.00,,,0.00,Rainwise IP-100,2013-12-05 14:57:00,
2013-12-05 10:02:00,45.7,43.0,30.15,East,90,7.0,18.0,89,0.00,,,0.00,Rainwise IP-100,2013-12-05 15:02:00,
2013-12-05 10:07:00,45.9,43.0,30.15,ESE,112,5.6,19.0,89,0.00,,,0.00,Rainwise IP-100,2013-12-05 15:07:00,
2013-12-05 10:12:00,46.1,43.0,30.15,ESE,112,4.0,17.0,89,0.00,,,0.00,Rainwise IP-100,2013-12-05 15:12:00,
2013-12-05 10:17:00,46.2,42.0,30.15,ESE,112,6.3,16.0,88,0.00,,,0.00,Rainwise IP-100,2013-12-05 15:17:00,
2013-12-05 10:22:00,46.2,42.0,30.15,ESE,112,4.9,18.0,88,0.00,,,0.00,Rainwise IP-100,2013-12-05 15:22:00,
2013-12-05 10:27:00,46.1,42.0,30.14,SE,135,6.1,18.0,88,0.00,,,0.00,Rainwise IP-100,2013-12-05 15:27:00,
2013-12-05 10:32:00,46.1,42.0,30.14,East,90,12.6,17.0,88,0.00,,,0.00,Rainwise IP-100,2013-12-05 15:32:00,
2013-12-05 10:37:00,46.2,43.0,30.14,SE,135,13.8,15.0,89,0.00,,,0.00,Rainwise IP-100,2013-12-05 15:37:00,
2013-12-05 10:42:00,46.1,43.0,30.13,SE,135,14.0,17.0,89,0.00,,,0.00,Rainwise IP-100,2013-12-05 15:42:00,
2013-12-05 10:47:00,45.9,43.0,30.13,ESE,112,7.9,17.0,89,0.00,,,0.00,Rainwise IP-100,2013-12-05 15:47:00,
2013-12-05 10:52:00,45.9,43.0,30.12,East,90,8.2,15.0,89,0.00,,,0.00,Rainwise IP-100,2013-12-05 15:52:00,
2013-12-05 10:57:00,45.8,43.0,30.11,ENE,67,7.5,16.0,90,0.00,,,0.00,Rainwise IP-100,2013-12-05 15:57:00,
2013-12-05 11:02:00,45.7,43.0,30.11,ESE,112,4.4,19.0,91,0.00,,,0.00,Rainwise IP-100,2013-12-05 16:02:00,
2013-12-05 11:07:00,45.7,43.0,30.11,ESE,112,3.5,16.0,91,0.00,,,0.00,Rainwise IP-100,2013-12-05 16:07:00,
2013-12-05 11:12:00,45.7,44.0,30.11,ESE,112,8.4,13.0,92,0.00,,,0.00,Rainwise IP-100,2013-12-05 16:12:00,
2013-12-05 11:17:00,45.7,44.0,30.11,ESE,112,6.8,15.0,92,0.00,,,0.00,Rainwise IP-100,2013-12-05 16:17:00,
2013-12-05 11:22:00,45.7,44.0,30.11,ESE,112,7.9,17.0,93,0.00,,,0.00,Rainwise IP-100,2013-12-05 16:22:00,
2013-12-05 11:27:00,45.8,44.0,30.11,SSE,157,6.3,18.0,93,0.00,,,0.00,Rainwise IP-100,2013-12-05 16:27:00,
2013-12-05 11:32:00,45.9,44.0,30.11,East,90,7.5,15.0,93,0.00,,,0.00,Rainwise IP-100,2013-12-05 16:32:00,
2013-12-05 11:37:00,45.9,44.0,30.11,SE,135,3.7,13.0,92,0.00,,,0.00,Rainwise IP-100,2013-12-05 16:37:00,
2013-12-05 11:42:00,46.0,44.0,30.11,ESE,112,10.3,15.0,92,0.00,,,0.00,Rainwise IP-100,2013-12-05 16:42:00,
2013-12-05 11:47:00,46.1,44.0,30.11,SE,135,5.1,13.0,92,0.00,,,0.00,Rainwise IP-100,2013-12-05 16:47:00,
2013-12-05 11:52:00,46.1,44.0,30.10,ESE,112,6.1,15.0,92,0.00,,,0.00,Rainwise IP-100,2013-12-05 16:52:00,
2013-12-05 11:57:00,46.1,44.0,30.11,ESE,112,7.2,15.0,92,0.00,,,0.00,Rainwise IP-100,2013-12-05 16:57:00,
2013-12-05 12:02:00,46.1,44.0,30.11,SE,135,7.5,14.0,93,0.00,,,0.00,Rainwise IP-100,2013-12-05 17:02:00,
2013-12-05 12:07:00,46.2,44.0,30.10,ESE,112,2.8,11.0,93,0.00,,,0.00,Rainwise IP-100,2013-12-05 17:07:00,
2013-12-05 12:12:00,46.3,44.0,30.10,SE,135,7.9,14.0,93,0.00,,,0.00,Rainwise IP-100,2013-12-05 17:12:00,
2013-12-05 12:17:00,46.4,44.0,30.10,ESE,112,7.5,16.0,93,0.00,,,0.00,Rainwise IP-100,2013-12-05 17:17:00,
2013-12-05 12:22:00,46.4,44.0,30.10,East,90,7.5,13.0,93,0.00,,,0.00,Rainwise IP-100,2013-12-05 17:22:00,
2013-12-05 12:27:00,46.6,45.0,30.09,ENE,67,4.0,14.0,93,0.00,,,0.00,Rainwise IP-100,2013-12-05 17:27:00,
2013-12-05 12:32:00,46.7,45.0,30.09,SE,135,8.6,14.0,93,0.00,,,0.00,Rainwise IP-100,2013-12-05 17:32:00,
2013-12-05 12:37:00,46.8,44.0,30.08,ESE,112,11.0,20.0,92,0.00,,,0.00,Rainwise IP-100,2013-12-05 17:37:00,
2013-12-05 12:42:00,46.9,44.0,30.08,South,180,1.2,18.0,92,0.00,,,0.00,Rainwise IP-100,2013-12-05 17:42:00,
2013-12-05 12:47:00,46.9,44.0,30.08,SE,135,20.3,20.3,92,0.00,,,0.00,Rainwise IP-100,2013-12-05 17:47:00,
2013-12-05 12:52:00,46.9,44.0,30.07,SE,135,12.6,21.0,92,0.00,,,0.00,Rainwise IP-100,2013-12-05 17:52:00,
2013-12-05 12:57:00,46.8,44.0,30.07,East,90,9.1,17.0,92,0.00,,,0.00,Rainwise IP-100,2013-12-05 17:57:00,
2013-12-05 13:02:00,46.8,44.0,30.07,SE,135,12.1,17.0,92,0.00,,,0.00,Rainwise IP-100,2013-12-05 18:02:00,
2013-12-05 13:07:00,46.8,44.0,30.07,SSE,157,5.4,16.0,92,0.00,,,0.00,Rainwise IP-100,2013-12-05 18:07:00,
2013-12-05 13:12:00,46.7,44.0,30.07,SE,135,7.9,16.0,92,0.00,,,0.00,Rainwise IP-100,2013-12-05 18:12:00,
2013-12-05 13:17:00,46.7,45.0,30.06,ESE,112,12.1,18.0,93,0.00,,,0.00,Rainwise IP-100,2013-12-05 18:17:00,
2013-12-05 13:22:00,46.8,45.0,30.06,ENE,67,6.5,20.0,93,0.00,,,0.00,Rainwise IP-100,2013-12-05 18:22:00,
2013-12-05 13:27:00,47.0,45.0,30.06,ESE,112,11.2,17.0,93,0.00,,,0.00,Rainwise IP-100,2013-12-05 18:27:00,
2013-12-05 13:32:00,47.0,45.0,30.05,ESE,112,10.7,18.0,93,0.00,,,0.00,Rainwise IP-100,2013-12-05 18:32:00,
2013-12-05 13:37:00,47.1,45.0,30.06,ESE,112,11.7,15.0,93,0.00,,,0.00,Rainwise IP-100,2013-12-05 18:37:00,
2013-12-05 13:42:00,47.1,45.0,30.05,ESE,112,8.6,14.0,93,0.00,,,0.00,Rainwise IP-100,2013-12-05 18:42:00,
2013-12-05 13:47:00,47.2,45.0,30.05,ESE,112,7.0,15.0,93,0.00,,,0.00,Rainwise IP-100,2013-12-05 18:47:00,
2013-12-05 13:52:00,47.4,46.0,30.05,SE,135,4.0,16.0,93,0.00,,,0.00,Rainwise IP-100,2013-12-05 18:52:00,
2013-12-05 13:57:00,47.4,46.0,30.05,SE,135,5.6,15.0,93,0.00,,,0.00,Rainwise IP-100,2013-12-05 18:57:00,
2013-12-05 14:02:00,47.3,45.0,30.05,ESE,112,9.3,14.0,93,0.00,,,0.00,Rainwise IP-100,2013-12-05 19:02:00,
2013-12-05 14:07:00,47.3,45.0,30.05,ESE,112,3.0,14.0,93,0.00,,,0.00,Rainwise IP-100,2013-12-05 19:07:00,
2013-12-05 14:12:00,47.3,45.0,30.05,East,90,5.6,13.0,93,0.00,,,0.00,Rainwise IP-100,2013-12-05 19:12:00,
2013-12-05 14:17:00,47.3,45.0,30.04,SE,135,5.6,12.0,93,0.00,,,0.00,Rainwise IP-100,2013-12-05 19:17:00,
2013-12-05 14:22:00,47.3,45.0,30.04,ESE,112,4.2,14.0,94,0.00,,,0.00,Rainwise IP-100,2013-12-05 19:22:00,
2013-12-05 14:27:00,47.4,46.0,30.05,ESE,112,6.5,16.0,94,0.00,,,0.00,Rainwise IP-100,2013-12-05 19:27:00,
2013-12-05 14:32:00,47.4,46.0,30.04,SE,135,6.3,14.0,94,0.00,,,0.00,Rainwise IP-100,2013-12-05 19:32:00,
2013-12-05 14:37:00,47.4,46.0,30.03,ESE,112,5.4,16.0,94,0.00,,,0.00,Rainwise IP-100,2013-12-05 19:37:00,
2013-12-05 14:42:00,47.4,46.0,30.04,SE,135,4.9,15.0,94,0.00,,,0.00,Rainwise IP-100,2013-12-05 19:42:00,
2013-12-05 14:47:00,47.4,46.0,30.03,SSE,157,3.7,15.0,94,0.00,,,0.00,Rainwise IP-100,2013-12-05 19:47:00,
2013-12-05 14:52:00,47.4,46.0,30.04,ESE,112,7.0,13.0,94,0.00,,,0.00,Rainwise IP-100,2013-12-05 19:52:00,
2013-12-05 14:57:00,47.4,46.0,30.04,South,180,3.0,14.0,94,0.00,,,0.00,Rainwise IP-100,2013-12-05 19:57:00,
2013-12-05 15:02:00,47.4,46.0,30.04,ESE,112,5.1,14.0,95,0.00,,,0.00,Rainwise IP-100,2013-12-05 20:02:00,
2013-12-05 15:07:00,47.4,46.0,30.04,SE,135,6.3,15.0,95,0.00,,,0.00,Rainwise IP-100,2013-12-05 20:07:00,
2013-12-05 15:12:00,47.5,46.0,30.04,SE,135,3.7,14.0,95,0.00,,,0.00,Rainwise IP-100,2013-12-05 20:12:00,
2013-12-05 15:17:00,47.5,46.0,30.04,SE,135,7.7,13.0,95,0.00,,,0.00,Rainwise IP-100,2013-12-05 20:17:00,
2013-12-05 15:22:00,47.5,46.0,30.04,ESE,112,4.2,12.0,95,0.00,,,0.00,Rainwise IP-100,2013-12-05 20:22:00,
2013-12-05 15:27:00,47.5,46.0,30.04,East,90,7.9,16.0,95,0.00,,,0.00,Rainwise IP-100,2013-12-05 20:27:00,
2013-12-05 15:32:00,47.5,46.0,30.04,SSE,157,4.2,11.0,95,0.00,,,0.00,Rainwise IP-100,2013-12-05 20:32:00,
2013-12-05 15:37:00,47.6,46.0,30.04,SSE,157,4.2,12.0,95,0.00,,,0.00,Rainwise IP-100,2013-12-05 20:37:00,
2013-12-05 15:42:00,47.8,46.0,30.04,SSE,157,4.9,13.0,95,0.00,,,0.00,Rainwise IP-100,2013-12-05 20:42:00,
2013-12-05 15:47:00,48.0,47.0,30.04,ESE,112,10.0,13.0,95,0.00,,,0.00,Rainwise IP-100,2013-12-05 20:47:00,
2013-12-05 15:52:00,48.0,47.0,30.04,ESE,112,5.4,12.0,95,0.00,,,0.00,Rainwise IP-100,2013-12-05 20:52:00,
2013-12-05 15:57:00,48.0,47.0,30.04,SE,135,2.8,11.0,95,0.00,,,0.00,Rainwise IP-100,2013-12-05 20:57:00,
2013-12-05 16:02:00,48.1,47.0,30.04,SE,135,7.9,11.0,95,0.00,,,0.00,Rainwise IP-100,2013-12-05 21:02:00,
2013-12-05 16:07:00,48.0,47.0,30.04,ESE,112,7.0,9.0,95,0.00,,,0.00,Rainwise IP-100,2013-12-05 21:07:00,
2013-12-05 16:12:00,48.0,47.0,30.03,SE,135,9.1,10.0,95,0.00,,,0.00,Rainwise IP-100,2013-12-05 21:12:00,
2013-12-05 16:17:00,48.0,47.0,30.03,SSE,157,3.3,10.0,96,0.00,,,0.00,Rainwise IP-100,2013-12-05 21:17:00,
2013-12-05 16:22:00,48.0,47.0,30.03,ESE,112,6.5,13.0,96,0.00,,,0.00,Rainwise IP-100,2013-12-05 21:22:00,
2013-12-05 16:27:00,48.0,47.0,30.03,ESE,112,6.3,11.0,96,0.00,,,0.00,Rainwise IP-100,2013-12-05 21:27:00,
2013-12-05 16:32:00,47.9,47.0,30.03,ESE,112,4.2,11.0,96,0.00,,,0.00,Rainwise IP-100,2013-12-05 21:32:00,
2013-12-05 16:37:00,47.8,47.0,30.04,SSE,157,3.5,9.0,96,0.00,,,0.00,Rainwise IP-100,2013-12-05 21:37:00,
2013-12-05 16:42:00,47.8,47.0,30.04,ESE,112,3.3,8.0,96,0.00,,,0.00,Rainwise IP-100,2013-12-05 21:42:00,
2013-12-05 16:47:00,47.8,47.0,30.04,ESE,112,5.6,8.0,96,0.00,,,0.00,Rainwise IP-100,2013-12-05 21:47:00,
2013-12-05 16:52:00,48.0,47.0,30.04,SSE,157,3.0,7.0,97,0.00,,,0.00,Rainwise IP-100,2013-12-05 21:52:00,
2013-12-05 16:57:00,48.1,47.0,30.04,ESE,112,4.4,9.0,97,0.00,,,0.00,Rainwise IP-100,2013-12-05 21:57:00,
2013-12-05 17:02:00,48.3,47.0,30.04,SSE,157,2.8,7.0,97,0.00,,,0.00,Rainwise IP-100,2013-12-05 22:02:00,
2013-12-05 17:07:00,48.5,48.0,30.05,SSE,157,6.3,7.0,97,0.00,,,0.00,Rainwise IP-100,2013-12-05 22:07:00,
2013-12-05 17:12:00,49.0,48.0,30.05,ESE,112,4.0,9.0,97,0.00,,,0.00,Rainwise IP-100,2013-12-05 22:12:00,
2013-12-05 17:17:00,49.5,49.0,30.05,SSE,157,5.4,10.0,98,0.00,,,0.00,Rainwise IP-100,2013-12-05 22:17:00,
2013-12-05 17:22:00,49.7,49.0,30.05,SE,135,5.1,8.0,98,0.00,,,0.00,Rainwise IP-100,2013-12-05 22:22:00,
2013-12-05 17:27:00,49.7,49.0,30.04,South,180,4.0,8.0,98,0.00,,,0.00,Rainwise IP-100,2013-12-05 22:27:00,
2013-12-05 17:32:00,49.7,49.0,30.05,SSE,157,3.0,8.0,98,0.00,,,0.00,Rainwise IP-100,2013-12-05 22:32:00,
2013-12-05 17:37:00,49.8,49.0,30.04,SE,135,4.2,7.0,98,0.00,,,0.00,Rainwise IP-100,2013-12-05 22:37:00,
2013-12-05 17:42:00,49.9,49.0,30.04,SSE,157,4.4,7.0,98,0.00,,,0.00,Rainwise IP-100,2013-12-05 22:42:00,
2013-12-05 17:47:00,49.9,49.0,30.04,South,180,4.0,7.0,98,0.00,,,0.00,Rainwise IP-100,2013-12-05 22:47:00,
2013-12-05 17:52:00,50.0,49.0,30.04,SSE,157,4.7,6.0,98,0.00,,,0.00,Rainwise IP-100,2013-12-05 22:52:00,
2013-12-05 17:57:00,50.2,50.0,30.04,SSE,157,3.7,7.0,99,0.00,,,0.00,Rainwise IP-100,2013-12-05 22:57:00,
2013-12-05 18:02:00,50.3,50.0,30.04,SSE,157,6.3,7.0,99,0.00,,,0.00,Rainwise IP-100,2013-12-05 23:02:00,
2013-12-05 18:07:00,50.6,50.0,30.04,SSW,202,4.2,7.0,99,0.00,,,0.00,Rainwise IP-100,2013-12-05 23:07:00,
2013-12-05 18:12:00,50.9,51.0,30.05,SW,225,1.2,8.0,99,0.00,,,0.00,Rainwise IP-100,2013-12-05 23:12:00,
2013-12-05 18:17:00,51.2,51.0,30.05,SSE,157,0.0,7.0,99,0.00,,,0.00,Rainwise IP-100,2013-12-05 23:17:00,
2013-12-05 18:22:00,51.3,51.0,30.05,SSE,157,3.0,7.0,99,0.00,,,0.00,Rainwise IP-100,2013-12-05 23:22:00,
2013-12-05 18:27:00,51.5,52.0,30.05,SSW,202,1.9,6.0,99,0.00,,,0.00,Rainwise IP-100,2013-12-05 23:27:00,
2013-12-05 18:32:00,51.6,52.0,30.05,SE,135,0.0,7.0,99,0.00,,,0.00,Rainwise IP-100,2013-12-05 23:32:00,
2013-12-05 18:37:00,51.6,52.0,30.05,SSW,202,5.8,10.0,99,0.00,,,0.00,Rainwise IP-100,2013-12-05 23:37:00,
2013-12-05 18:42:00,51.7,52.0,30.04,South,180,6.5,11.0,99,0.00,,,0.00,Rainwise IP-100,2013-12-05 23:42:00,
2013-12-05 18:47:00,51.6,52.0,30.05,SSW,202,2.3,9.0,99,0.00,,,0.00,Rainwise IP-100,2013-12-05 23:47:00,
2013-12-05 18:52:00,51.6,52.0,30.05,SW,225,3.7,8.0,99,0.00,,,0.00,Rainwise IP-100,2013-12-05 23:52:00,
2013-12-05 18:57:00,51.5,52.0,30.04,SSW,202,4.2,10.0,99,0.00,,,0.00,Rainwise IP-100,2013-12-05 23:57:00,
2013-12-05 19:02:00,51.5,52.0,30.05,SSW,202,2.8,7.0,99,0.00,,,0.00,Rainwise IP-100,2013-12-06 00:02:00,
2013-12-05 19:07:00,51.4,51.0,30.05,SSE,157,4.4,9.0,99,0.00,,,0.00,Rainwise IP-100,2013-12-06 00:07:00,
2013-12-05 19:12:00,51.3,51.0,30.05,SW,225,4.0,8.0,99,0.00,,,0.00,Rainwise IP-100,2013-12-06 00:12:00,
2013-12-05 19:17:00,51.2,51.0,30.05,WSW,247,2.3,5.0,99,0.00,,,0.00,Rainwise IP-100,2013-12-06 00:17:00,
2013-12-05 19:22:00,51.2,51.0,30.05,South,180,3.7,7.0,99,0.00,,,0.00,Rainwise IP-100,2013-12-06 00:22:00,
2013-12-05 19:27:00,51.1,51.0,30.05,WSW,247,3.3,6.0,99,0.00,,,0.00,Rainwise IP-100,2013-12-06 00:27:00,
2013-12-05 19:32:00,51.1,51.0,30.05,SSW,202,0.0,7.0,99,0.00,,,0.00,Rainwise IP-100,2013-12-06 00:32:00,
2013-12-05 19:37:00,51.1,51.0,30.05,SW,225,5.4,5.4,99,0.00,,,0.00,Rainwise IP-100,2013-12-06 00:37:00,
2013-12-05 19:42:00,51.1,51.0,30.05,SSW,202,6.5,8.0,99,0.00,,,0.00,Rainwise IP-100,2013-12-06 00:42:00,
2013-12-05 19:47:00,51.0,51.0,30.04,SSE,157,2.3,7.0,99,0.00,,,0.00,Rainwise IP-100,2013-12-06 00:47:00,
2013-12-05 19:52:00,51.0,51.0,30.04,SSE,157,2.8,4.0,99,0.00,,,0.00,Rainwise IP-100,2013-12-06 00:52:00,
2013-12-05 19:57:00,51.0,51.0,30.03,ESE,112,2.8,6.0,99,0.00,,,0.00,Rainwise IP-100,2013-12-06 00:57:00,
2013-12-05 20:02:00,51.1,51.0,30.03,SSE,157,2.6,8.0,99,0.00,,,0.00,Rainwise IP-100,2013-12-06 01:02:00,
2013-12-05 20:07:00,51.2,51.0,30.02,SSE,157,2.6,7.0,99,0.00,,,0.00,Rainwise IP-100,2013-12-06 01:07:00,
2013-12-05 20:12:00,51.3,51.0,30.03,SSE,157,2.1,5.0,100,0.00,,,0.00,Rainwise IP-100,2013-12-06 01:12:00,
2013-12-05 20:17:00,51.4,51.0,30.03,SSE,157,4.0,5.0,100,0.00,,,0.00,Rainwise IP-100,2013-12-06 01:17:00,
2013-12-05 20:22:00,51.6,52.0,30.03,South,180,4.9,6.0,100,0.00,,,0.00,Rainwise IP-100,2013-12-06 01:22:00,
2013-12-05 20:27:00,51.7,52.0,30.03,South,180,3.0,7.0,100,0.00,,,0.00,Rainwise IP-100,2013-12-06 01:27:00,
2013-12-05 20:32:00,51.8,52.0,30.02,SSW,202,2.6,6.0,100,0.00,,,0.00,Rainwise IP-100,2013-12-06 01:32:00,
2013-12-05 20:37:00,51.9,52.0,30.02,SSE,157,3.0,6.0,100,0.00,,,0.00,Rainwise IP-100,2013-12-06 01:37:00,
2013-12-05 20:42:00,52.0,52.0,30.02,SSE,157,3.5,8.0,100,0.00,,,0.00,Rainwise IP-100,2013-12-06 01:42:00,
2013-12-05 20:47:00,52.0,52.0,30.02,SE,135,2.6,6.0,100,0.00,,,0.00,Rainwise IP-100,2013-12-06 01:47:00,
2013-12-05 20:52:00,52.0,52.0,30.02,SSE,157,4.2,7.0,100,0.00,,,0.00,Rainwise IP-100,2013-12-06 01:52:00,
2013-12-05 20:57:00,52.0,52.0,30.02,SSE,157,2.1,7.0,100,0.00,,,0.00,Rainwise IP-100,2013-12-06 01:57:00,
2013-12-05 21:02:00,52.0,52.0,30.02,SSE,157,4.4,7.0,100,0.00,,,0.00,Rainwise IP-100,2013-12-06 02:02:00,
2013-12-05 21:07:00,51.8,52.0,30.01,SSE,157,3.3,7.0,100,0.00,,,0.00,Rainwise IP-100,2013-12-06 02:07:00,
2013-12-05 21:12:00,51.5,52.0,30.01,SE,135,5.8,7.0,100,0.00,,,0.00,Rainwise IP-100,2013-12-06 02:12:00,
2013-12-05 21:17:00,51.3,51.0,30.01,SSE,157,6.1,7.0,100,0.00,,,0.00,Rainwise IP-100,2013-12-06 02:17:00,
2013-12-05 21:22:00,51.2,51.0,30.01,SSE,157,3.7,6.0,100,0.00,,,0.00,Rainwise IP-100,2013-12-06 02:22:00,
2013-12-05 21:27:00,51.4,51.0,30.01,South,180,1.4,8.0,100,0.00,,,0.00,Rainwise IP-100,2013-12-06 02:27:00,
2013-12-05 21:32:00,51.5,52.0,30.01,SSE,157,2.3,8.0,100,0.00,,,0.00,Rainwise IP-100,2013-12-06 02:32:00,
2013-12-05 21:37:00,51.6,52.0,30.01,SSE,157,0.0,9.0,100,0.00,,,0.00,Rainwise IP-100,2013-12-06 02:37:00,
2013-12-05 21:42:00,51.6,52.0,30.01,SSE,157,4.4,6.0,100,0.00,,,0.00,Rainwise IP-100,2013-12-06 02:42:00,
2013-12-05 21:47:00,51.6,52.0,30.00,SSE,157,3.7,9.0,100,0.00,,,0.00,Rainwise IP-100,2013-12-06 02:47:00,
2013-12-05 21:52:00,51.7,52.0,30.00,SSE,157,5.6,7.0,100,0.00,,,0.00,Rainwise IP-100,2013-12-06 02:52:00,
2013-12-05 21:57:00,51.8,52.0,30.00,SSE,157,3.0,9.0,100,0.00,,,0.00,Rainwise IP-100,2013-12-06 02:57:00,
2013-12-05 22:02:00,51.9,52.0,30.00,SE,135,6.8,9.0,100,0.00,,,0.00,Rainwise IP-100,2013-12-06 03:02:00,
2013-12-05 22:07:00,51.9,52.0,29.99,SE,135,2.1,7.0,100,0.00,,,0.00,Rainwise IP-100,2013-12-06 03:07:00,
2013-12-05 22:12:00,51.9,52.0,29.99,SSE,157,1.4,8.0,100,0.00,,,0.00,Rainwise IP-100,2013-12-06 03:12:00,
2013-12-05 22:17:00,52.0,52.0,29.99,SSE,157,7.2,10.0,100,0.00,,,0.00,Rainwise IP-100,2013-12-06 03:17:00,
2013-12-05 22:22:00,52.4,52.0,29.99,SSE,157,4.9,10.0,100,0.00,,,0.00,Rainwise IP-100,2013-12-06 03:22:00,
2013-12-05 22:27:00,52.7,53.0,29.99,SSW,202,3.7,10.0,100,0.00,,,0.00,Rainwise IP-100,2013-12-06 03:27:00,
2013-12-05 22:32:00,52.9,53.0,29.99,SSW,202,12.4,12.4,100,0.00,,,0.00,Rainwise IP-100,2013-12-06 03:32:00,
2013-12-05 22:37:00,53.1,53.0,30.00,SSE,157,6.1,14.0,100,0.00,,,0.00,Rainwise IP-100,2013-12-06 03:37:00,
2013-12-05 22:42:00,53.4,53.0,29.99,SW,225,4.7,17.0,100,0.00,,,0.00,Rainwise IP-100,2013-12-06 03:42:00,
2013-12-05 22:47:00,53.4,53.0,30.00,SSW,202,8.6,17.0,100,0.00,,,0.00,Rainwise IP-100,2013-12-06 03:47:00,
2013-12-05 22:52:00,53.4,53.0,29.99,SSE,157,5.8,15.0,100,0.00,,,0.00,Rainwise IP-100,2013-12-06 03:52:00,
2013-12-05 22:57:00,53.4,53.0,29.99,SE,135,9.1,14.0,100,0.00,,,0.00,Rainwise IP-100,2013-12-06 03:57:00,
2013-12-05 23:02:00,53.4,53.0,29.99,West,270,7.5,15.0,100,0.00,,,0.00,Rainwise IP-100,2013-12-06 04:02:00,
2013-12-05 23:07:00,53.4,53.0,29.99,South,180,10.7,19.0,100,0.00,,,0.00,Rainwise IP-100,2013-12-06 04:07:00,
2013-12-05 23:12:00,53.4,53.0,29.98,South,180,9.6,15.0,100,0.00,,,0.00,Rainwise IP-100,2013-12-06 04:12:00,
2013-12-05 23:17:00,53.4,53.0,29.98,SW,225,6.1,16.0,100,0.00,,,0.00,Rainwise IP-100,2013-12-06 04:17:00,
2013-12-05 23:22:00,53.3,53.0,29.98,SW,225,9.8,17.0,100,0.00,,,0.00,Rainwise IP-100,2013-12-06 04:22:00,
2013-12-05 23:27:00,53.1,53.0,29.99,SSW,202,2.8,16.0,100,0.00,,,0.00,Rainwise IP-100,2013-12-06 04:27:00,
2013-12-05 23:32:00,52.9,53.0,29.98,South,180,5.8,15.0,100,0.00,,,0.00,Rainwise IP-100,2013-12-06 04:32:00,
2013-12-05 23:37:00,52.8,53.0,29.98,WSW,247,5.4,12.0,99,0.00,,,0.00,Rainwise IP-100,2013-12-06 04:37:00,
2013-12-05 23:42:00,52.7,53.0,29.97,SSW,202,6.5,14.0,99,0.00,,,0.00,Rainwise IP-100,2013-12-06 04:42:00,
2013-12-05 23:47:00,52.7,53.0,29.97,SSE,157,4.9,13.0,99,0.00,,,0.00,Rainwise IP-100,2013-12-06 04:47:00,
2013-12-05 23:52:00,52.8,53.0,29.97,SSW,202,8.9,13.0,99,0.00,,,0.00,Rainwise IP-100,2013-12-06 04:52:00,
2013-12-05 23:57:00,52.9,53.0,29.96,SSW,202,5.4,11.0,99,0.00,,,0.00,Rainwise IP-100,2013-12-06 04:57:00,